Location: Erdweis
(48.5167°N, 15.3500°E)
Time: 06:28:57
(UTC+00:00)

Cosmos 1805 - Pass Details

Date: 18 September 2020
Orbit: 524 x 531 km, 82.5° (Epoch: 23 October)

Event Time Altitude Azimuth Distance (km) Brightness Sun altitude
Exits shadow 19:00:14 37° 61° (ENE) 836 3.9 -19.3°
Drops below altitude 10° 19:03:10 10° 22° (NNE) 1,792 6.0 -19.8°
Sets 19:05:24 0° 16° (NNE) 2,689 7.0 -20.1°
